STARLINK-31453, 59522

Orbit data source: Space-Track

STARLINK-31453, 59522 is a payload satellite owned by SpaceX/Seattle (US) in LEO that was launched on Wed, 17 Apr 2024 UTC via an FALCON 9 launch vehicle from the Air Force Eastern Test Range (AFETR). Payload-class satellites include a variety of spacecraft equipped with specific instruments for various scientific and technological missions. These include communications satellites like Starlink; space stations such as the ISS; scientific satellites like the Hubble; Earth observation satellites from companies like Planet Labs, Umbra, and HawkEye 360; GPS; miniature CubeSats for education and research; and military/defense satellites.

Loading next visibility...
Identifier
59522, 2024-073M
Orbit
LEO
Country
Flag of USUS
Related business
Manufacturer
SpaceX/Seattle
Mission
Operational spacecraft
Bus & Motor
STARLINK V2M, Unknown motor
Mass
730 kg wet, ~700 kg dry
Launch date (UTC)
2024-04-17 (1 year ago)
Launch vehicle
FALCON 9
Launch site
Air Force Eastern Test Range (AFETR)
Object type
Payload
Rocket body
Debris
Shape & HBR
Unknown
Radar Cross Section
Large (>1 m²)

Expand to show TLE details & history
Last TLE update: 16 hours ago

TLE from 16 hours ago
0 STARLINK-31453
1 59522U 24073M   25260.25849439 -.00002069  00000-0 -65738-4 0  9990
2 59522  43.0007 199.6808 0001162 273.3685  86.7033 15.27561561 79859
Epoch: 2025-09-17T06:12Z
TLE epoch observation values (Epoch: 2025-09-17T06:12:13.915Z)
Latitude
-0.00006°
Longitude
110.18574°
Altitude
482.834 km
Speed
7.626 km/s
True Right ascension
13h 18m 43s
True Declination
0° 00' 00"
Sunlit
Object was in daylight at epoch
Visualization orbit readout
Latitude
Unknown
Longitude
Unknown
Altitude
Unknown
Speed
Unknown
Apparent Right ascension
Unknown
Apparent Declination
Unknown
Sunlit
N/A
Visualization observer readout
Local Sidereal Time
14:35:42
Azimuth
Unknown
Elevation
Unknown
Doppler factor
Unknown
Orbital elements
Apogee altitude
485.847 km
Perigee altitude
484.252 km
Semi-major axis
6,863.186 km
Eccentricity
0.00012
Inclination
43.0007°
RAAN
199.6808°
Arg. of periapsis
273.3685°
True anomaly
86.71659°
Mean anomaly
86.7033°
Eccentric anomaly
86.70995°
Mean motion
3.81728 °/min
Orbital period
94.31 mins
BSTAR
-0.000065738
Loading maneuver chart data...
Computing Atmospheric mass density...
Loading historical data...
Loading historical data...
Loading historical data...
Loading historical data...
Loading historical data...
Loading historical data...
Loading historical data...

Documentation

Showing up to 5 results
|